sat.trackr.live / text

‹ back to catalog

STARLINK-35029

NORAD 65445 · 2025-194M

PAYLOAD ACTIVE UNKNOWN

§ Identity

Operator
Country
US
Launch date
2025-09-03
Launch site
AFWTR
Launch vehicle
Mass (kg)
RCS (m²)

Purposes: comms

External: N2YO · Heavens-Above · Gunter

§ Orbital elements

Epoch: 2026-09-20T13:03:43.200864Z

Period
93.91 min
Inclination
97.2847°
Eccentricity
0.0003384
Mean motion
15.33455272 rev/d
Perigee alt
463.2 km
Apogee alt
467.8 km
Semi-major
6,843.6 km
B*
3.7287e-4
RAAN
113.1735°
Arg perigee
83.9912°
Mean anomaly
276.1716°
Rev number
5,907

§ Raw data

STARLINK-350291 65445U 25194M   26263.54425001  .00011987  00000+0  37287-3 0  99902 65445  97.2847 113.1735 0003384  83.9912 276.1716 15.33455272 59072

JSON: /api/v1/satellites/65445 · /tle

For live sub-satellite position, see the globe view (requires WebGL).

§ Visibility from observer

Set your observer location to see the next 7 days of passes ≥ 10°. The values pass through the URL so the page stays shareable.

No JS? Fill the form by hand. The geolocation button needs JavaScript.